RH
31 26 22 18 12 9 5 4 2 1 1 1 1 1 1 2 3 2 2 2 2 2 2 6 13 14 10 5 6 27 24 22 27 26 19 28 38 46 52 66 54 57 67 62 63 66 64
29 25 20 14 12 7 4 2 1 1 1 2 1 2 2 4 4 5 5 4 4 5 6 8 13 18 28 16 27 14 30 42 52 48 42 26 26 36 43 55 71 61 50 56 55 58 61
27 22 17 13 8 4 2 1 1 1 1 1 2 3 4 6 6 7 6 6 5 8 10 14 14 14 18 12 36 23 21 25 67 86 56 73 26 34 40 64 58 50 60 48 49 52 51
25 19 13 9 4 2 2 1 1 1 2 2 4 5 6 6 8 8 8 7 8 13 15 15 16 18 17 60 98 84 36 33 30 49 57 60 64 40 66 59 53 58 63 58 46 49 54
19 14 10 5 2 1 1 1 1 2 2 4 5 7 6 7 10 10 10 10 10 14 20 16 49 61 48 80 97 98 96 48 31 31 29 42 76 79 80 64 57 51 51 53 50 51 49
15 11 7 3 2 2 1 1 2 3 3 5 7 6 7 7 12 12 10 13 13 12 32 31 36 60 63 81 81 79 97 100 86 65 48 87 77 93 99 84 56 43 48 45 48 44 47
12 9 5 3 2 1 1 2 2 3 4 5 6 8 8 9 12 13 12 15 19 17 35 28 48 54 69 61 84 94 95 92 92 99 100 91 100 99 98 82 56 42 39 44 40 42 44
11 8 4 3 2 1 2 2 3 4 6 5 6 8 10 11 16 15 16 24 39 45 30 26 27 58 76 72 75 94 96 80 92 96 98 96 97 98 98 94 78 52 40 36 40 38 40
10 7 4 2 1 1 2 2 3 4 4 5 8 10 13 14 16 14 16 21 41 43 37 34 36 37 32 35 67 94 95 95 98 92 96 97 76 93 99 93 82 61 47 38 38 39 38
11 7 4 2 1 1 2 3 4 5 4 5 5 8 16 19 16 14 11 44 40 42 52 47 35 33 28 42 40 72 74 91 80 94 95 97 94 83 91 98 90 65 53 42 40 40 35
10 6 4 2 1 2 2 2 4 5 5 5 5 6 18 29 18 12 18 38 40 43 54 58 44 32 82 68 69 83 98 83 98 98 100 90 63 93 99 74 93 76 57 54 46 38 34
8 5 3 2 1 2 2 2 3 3 3 4 5 10 18 24 18 16 28 33 37 58 64 76 79 38 58 43 63 50 89 84 76 83 91 94 76 78 91 89 80 77 60 60 53 42 47
6 4 3 2 2 2 2 2 2 3 3 4 5 15 29 26 15 20 32 26 56 70 74 72 77 45 67 69 62 72 83 88 96 94 96 96 96 96 99 98 86 82 56 63 79 77 58
9 6 4 2 2 2 3 3 2 3 3 4 5 16 38 29 14 32 32 39 74 84 96 91 97 87 72 76 71 77 72 78 96 98 96 97 82 89 93 97 91 94 59 52 64 65 41
11 7 5 3 2 2 2 3 3 3 4 4 5 16 32 36 16 34 32 88 100 100 98 100 90 78 70 73 90 83 73 81 98 93 98 97 85 81 96 97 91 88 67 44 35 31 38
14 7 4 3 2 2 3 4 4 4 4 4 4 16 32 28 20 18 32 85 90 85 81 99 95 98 90 88 88 87 81 70 91 100 96 98 94 95 92 96 96 80 63 67 54 56 51
21 12 6 3 3 3 4 4 4 4 5 5 4 10 29 34 15 19 49 52 54 63 83 97 100 98 98 96 97 83 84 82 85 100 100 99 97 86 94 98 94 94 82 66 48 38 41
23 17 8 4 3 3 4 4 5 4 5 5 5 8 19 34 36 76 48 47 45 43 61 91 93 100 100 100 98 92 85 94 99 99 94 97 96 96 84 94 97 90 92 85 58 44 43
33 22 15 5 3 3 4 5 5 5 6 6 5 8 17 40 53 31 27 38 52 40 49 71 99 98 93 100 96 96 99 97 100 100 85 74 98 85 96 94 97 98 92 92 68 54 48
51 38 21 10 3 3 4 5 6 6 6 7 7 13 12 33 54 75 40 39 42 41 51 67 72 95 98 98 100 89 96 91 85 100 93 97 98 88 81 96 96 95 88 95 96 65 57
56 57 34 16 6 3 4 5 6 7 8 8 9 12 13 28 45 67 57 60 74 72 52 59 58 86 100 100 95 98 80 82 95 99 99 94 100 91 83 97 96 96 95 96 96 98 88
62 63 58 30 12 4 4 5 6 8 8 9 10 13 10 15 43 65 54 56 68 49 61 62 88 57 72 100 100 97 95 96 100 90 87 97 100 95 96 97 91 93 87 99 96 96 90
80 69 70 54 23 8 4 4 6 7 8 10 10 11 12 9 34 66 80 66 56 62 47 84 80 68 66 67 65 76 95 95 96 96 94 98 99 100 96 94 95 80 94 97 96 94 97
87 85 79 76 39 14 5 4 6 7 9 10 11 11 14 9 26 67 76 75 67 56 62 59 66 79 58 49 48 54 87 64 71 94 97 98 100 97 97 97 86 96 99 96 96 96 97
89 91 90 85 67 27 12 5 6 8 10 10 12 12 14 11 30 57 67 61 59 38 53 56 68 77 64 51 50 59 80 62 54 66 95 96 96 96 97 92 99 93 96 98 97 96 95
91 92 92 91 88 56 39 9 6 9 9 7 12 12 12 27 17 53 48 52 42 43 47 59 59 61 69 71 68 81 78 92 69 52 56 84 96 90 93 87 85 98 100 95 96 99 98
86 90 89 92 95 89 70 23 6 8 7 4 5 6 9 15 22 44 53 60 46 63 59 49 53 63 76 78 96 98 95 89 91 96 82 59 68 93 96 97 96 93 96 97 99 85 93
85 88 87 92 95 95 87 54 6 8 6 3 3 5 6 12 34 43 46 59 50 70 70 50 51 67 96 99 100 97 98 89 97 91 94 84 75 100 93 97 90 91 94 90 95 88 90
85 86 87 90 94 97 93 67 7 8 6 2 3 4 6 19 39 38 42 47 54 61 53 47 61 83 100 96 98 96 100 89 93 100 92 90 79 83 92 97 83 96 95 81 67 63 71
Wind_Speed
29 31 33 35 36 37 38 38 39 40 40 39 38 37 36 36 37 37 36 34 35 38 42 42 27 31 40 52 67 35 25 31 49 57 62 62 61 58 59 50 50 58 46 48 43 42 41
31 33 34 36 38 39 39 38 38 39 38 35 35 36 39 38 40 41 40 37 37 35 35 35 34 27 33 54 47 51 40 22 34 51 58 63 66 63 60 56 50 48 52 49 45 46 44
32 33 36 37 37 37 39 39 38 36 36 36 36 38 40 40 42 44 43 41 40 35 34 36 38 37 39 45 34 39 32 52 32 38 51 55 60 58 60 40 48 52 40 50 53 50 49
32 35 36 36 36 37 37 37 37 37 38 39 40 40 39 40 41 43 42 41 38 36 38 36 28 26 35 30 22 22 32 47 60 53 43 39 36 54 36 45 32 48 41 51 57 50 43
33 34 34 34 37 36 36 36 37 38 38 40 41 42 42 42 43 44 43 40 36 38 32 28 16 23 16 24 12 21 26 32 50 51 58 52 39 40 42 34 40 37 50 53 46 39 44
31 31 33 36 36 36 35 36 38 39 39 39 41 43 42 43 43 43 43 39 36 34 26 18 25 13 21 31 18 25 21 21 36 40 42 37 45 46 52 44 53 55 48 40 50 44 40
29 32 34 35 35 35 35 37 39 41 40 40 42 43 43 43 42 41 43 41 43 34 22 31 29 22 26 27 17 15 19 20 24 25 28 38 44 55 57 68 53 45 40 44 39 38 39
33 33 33 33 34 35 36 37 39 41 42 42 42 44 44 43 40 41 40 36 34 34 24 27 34 26 28 31 21 20 19 15 22 26 27 31 50 51 45 42 52 51 43 46 29 28 38
32 32 33 33 35 36 36 35 37 40 41 43 44 45 45 44 40 42 38 33 28 30 24 21 34 30 33 25 17 27 24 19 13 24 22 36 37 40 44 42 46 53 55 38 36 25 33
32 33 33 34 35 36 36 35 36 38 40 43 46 46 44 44 44 45 36 28 23 26 9 21 35 27 35 28 11 16 20 20 10 17 23 27 33 34 45 44 45 49 45 34 26 22 23
33 34 35 35 35 35 36 36 36 38 41 41 44 46 43 39 43 45 31 22 20 17 4 23 32 33 28 29 25 29 20 26 10 18 15 19 35 38 35 53 38 39 36 35 29 27 18
33 34 36 38 37 36 35 36 37 40 42 41 40 41 42 38 41 36 24 20 13 7 6 17 23 34 35 37 28 29 29 30 18 7 26 26 17 25 42 30 41 29 26 27 29 26 18
33 35 37 38 39 39 38 37 38 42 43 42 38 36 37 41 44 32 24 17 6 9 19 21 30 31 25 37 31 33 25 32 34 17 12 18 26 21 15 31 32 42 31 8 9 9 19
35 37 38 39 40 41 40 40 41 45 46 43 38 31 31 37 37 26 22 22 12 17 18 22 25 19 20 33 30 35 24 25 25 28 10 10 14 29 26 33 29 49 52 20 14 12 18
36 37 39 40 41 41 41 42 43 46 47 45 40 26 31 36 33 23 28 20 9 15 20 22 23 18 25 28 25 31 24 15 18 30 22 11 4 11 20 16 26 39 48 42 34 34 9
38 38 39 41 42 42 42 42 44 45 47 48 44 29 33 37 27 22 28 18 13 19 24 19 17 13 25 31 30 30 19 14 18 22 29 8 10 2 24 21 26 35 50 22 18 17 13
37 38 39 40 41 43 43 44 46 48 48 49 45 34 31 36 23 28 30 24 22 21 23 18 19 18 22 28 29 26 16 19 24 27 26 12 6 7 7 17 26 22 36 29 28 20 13
36 38 39 40 41 43 44 45 46 48 50 51 50 40 26 38 38 28 28 26 27 29 22 20 20 17 21 30 25 16 23 16 24 30 27 9 7 8 11 14 17 25 25 37 22 23 25
36 38 40 40 41 43 45 46 45 46 49 52 51 42 32 39 37 35 27 28 25 29 23 26 18 21 33 26 23 24 23 27 30 17 10 9 4 9 5 15 12 11 17 32 33 27 26
37 38 39 40 41 42 43 44 46 45 47 49 50 43 42 35 35 30 31 29 29 28 25 28 24 29 34 31 23 16 33 30 17 16 13 9 8 7 10 8 12 12 11 12 24 31 28
38 39 39 41 42 42 43 44 45 45 46 46 47 44 43 36 34 29 26 30 29 31 27 29 28 29 29 26 29 23 27 30 18 20 16 10 8 12 16 8 6 13 7 4 7 15 10
38 39 40 40 42 42 42 43 44 45 46 46 45 43 44 36 31 29 25 27 27 28 25 27 26 32 32 24 22 26 18 23 26 33 22 13 6 14 9 11 19 28 30 6 7 4 12
40 40 40 40 40 41 41 41 43 44 45 45 44 44 41 38 31 25 26 24 25 26 22 22 28 30 32 27 12 15 10 16 25 28 26 21 12 7 6 5 6 10 22 23 28 18 1
40 40 41 40 40 40 40 41 42 42 42 40 39 40 39 38 29 21 26 24 23 20 20 23 25 23 25 22 13 10 10 15 20 25 25 24 8 5 4 4 4 7 9 6 14 25 20
41 40 41 41 41 40 40 40 42 42 41 41 39 38 37 37 21 23 25 23 23 19 17 24 23 21 21 22 17 10 12 8 19 18 28 27 10 4 6 14 10 16 13 4 1 8 25
44 42 40 41 40 40 41 40 40 43 44 43 39 36 34 29 24 23 25 22 23 22 24 26 24 25 20 19 12 9 11 12 10 23 25 19 27 17 13 4 4 19 11 6 5 5 24
45 43 40 39 40 41 40 41 40 42 45 47 40 36 31 26 22 18 19 20 16 19 24 29 32 28 21 20 10 9 5 12 10 17 27 32 21 24 16 5 1 22 11 3 1 11 20
45 43 40 40 40 42 41 40 40 43 46 49 42 32 25 22 10 17 15 14 14 17 22 26 29 28 19 15 7 11 6 12 9 15 17 15 12 9 9 6 4 27 12 7 18 23 21
43 42 41 40 40 40 41 40 41 44 46 46 43 31 19 17 15 11 12 9 12 17 23 29 27 24 13 13 14 9 11 9 11 4 12 8 12 7 6 3 17 16 13 23 29 27 24
Wind_Direction
342 346 343 339 340 341 341 338 338 341 341 340 338 333 330 332 332 332 331 323 315 308 305 307 307 282 269 261 251 246 245 230 226 227 226 225 225 225 225 224 229 232 233 244 247 250 248
349 344 339 340 343 341 341 340 343 341 338 341 337 338 339 334 333 336 338 337 337 327 317 313 312 294 274 265 262 255 234 218 209 215 218 225 226 227 231 229 226 232 237 240 245 246 249
346 340 341 344 342 342 344 342 341 340 341 342 344 343 341 336 337 339 340 340 341 331 322 320 309 300 286 295 284 268 244 224 213 212 215 223 222 220 222 229 230 236 242 245 239 242 244
342 343 346 344 343 345 345 342 344 345 346 345 347 346 346 341 340 338 338 338 343 333 330 319 315 300 287 300 274 264 243 222 220 225 219 216 221 221 217 220 226 227 233 237 237 234 235
344 348 345 344 348 347 346 346 349 349 346 345 347 347 349 347 341 339 338 338 345 337 341 336 353 330 314 304 301 237 248 237 225 223 223 230 217 214 207 206 214 218 224 228 235 232 234
349 345 347 351 348 347 348 352 353 352 347 345 344 346 348 348 343 339 338 337 343 342 10 13 358 8 339 346 324 313 250 227 230 229 222 221 212 211 211 205 207 211 219 224 229 222 228
347 352 353 353 349 348 352 355 354 355 348 345 342 343 345 347 346 342 338 337 339 2 11 16 358 351 343 344 337 322 312 279 228 215 219 214 203 208 208 210 214 219 220 224 227 225 232
355 355 355 354 352 352 354 358 356 356 351 346 343 343 345 347 350 346 340 340 340 339 356 10 4 2 355 350 355 9 4 292 267 225 216 209 217 218 216 215 214 219 220 223 227 223 229
358 358 357 357 356 354 355 358 356 356 354 349 349 346 346 348 350 348 341 337 332 334 333 360 1 4 1 342 7 350 329 328 283 250 225 218 220 216 212 213 211 215 217 214 219 223 233
2 0 360 1 359 357 356 356 355 355 354 352 350 348 349 347 350 349 348 344 331 330 322 347 1 3 13 7 3 353 333 310 250 240 235 230 217 214 220 217 215 217 216 214 210 210 225
4 2 2 2 2 359 358 356 356 354 350 348 347 349 351 352 348 352 354 354 341 334 353 345 356 1 0 8 353 358 10 10 291 249 221 221 222 219 219 219 214 222 217 211 213 221 227
6 5 3 3 2 1 0 359 0 359 354 353 347 350 351 352 354 356 356 349 4 5 356 343 345 359 2 12 11 3 11 7 9 309 223 224 216 217 224 219 216 210 205 207 214 222 243
7 6 6 4 2 0 1 2 6 4 359 359 353 355 353 354 356 6 14 25 36 31 338 336 345 1 357 357 1 7 10 14 23 4 356 231 227 218 187 206 200 195 177 152 179 196 233
8 8 6 4 3 1 358 0 5 6 4 5 356 360 1 0 3 12 26 40 55 357 351 344 342 352 354 356 354 356 4 13 16 14 347 11 208 220 228 194 184 189 185 188 178 200 222
8 7 5 4 3 1 359 358 2 3 5 7 2 0 3 7 11 23 33 45 26 358 346 336 347 347 351 352 348 349 354 4 8 6 11 342 279 204 225 199 189 187 198 198 217 232 261
6 6 3 4 3 360 359 358 358 1 4 7 8 360 10 12 18 30 37 40 25 8 353 348 340 342 341 345 347 349 350 344 353 357 353 315 293 224 201 204 198 189 188 199 208 204 213
3 4 2 3 1 358 359 360 357 358 4 6 11 14 8 13 24 32 28 19 15 8 358 350 340 331 335 340 341 339 334 338 344 338 341 334 302 302 239 195 208 182 199 209 212 220 223
359 2 1 1 359 358 357 358 358 358 1 4 10 16 8 16 22 21 14 13 12 14 4 351 349 342 336 338 333 339 328 323 328 339 336 345 308 289 259 188 187 197 193 196 205 206 227
355 358 360 360 358 358 356 357 357 358 360 2 6 14 12 12 17 15 15 14 8 4 4 353 340 349 345 338 326 328 336 338 346 335 313 349 325 310 182 149 172 199 203 209 214 215 219
352 353 356 357 357 357 357 356 355 356 359 359 5 5 8 9 7 8 4 7 1 4 12 357 355 351 345 341 347 316 334 349 25 48 23 347 297 286 292 335 338 342 303 207 220 223 222
348 349 351 354 355 356 355 355 354 354 355 357 2 4 3 359 1 2 2 6 2 357 5 2 359 359 354 345 352 343 10 26 28 13 355 334 299 320 317 287 105 48 7 249 188 220 245
347 347 348 350 353 353 353 354 353 353 352 353 359 357 355 0 357 353 360 3 360 358 354 1 355 6 10 352 335 331 359 23 16 20 19 4 317 341 356 121 110 61 45 87 93 160 217
349 346 345 346 349 351 351 351 352 351 350 351 353 350 349 357 351 348 348 346 355 350 11 4 355 357 8 4 359 348 34 18 20 12 10 2 328 345 133 102 24 13 18 42 58 48 352
346 345 344 344 345 348 348 348 349 349 349 347 345 345 342 345 346 342 341 335 341 353 344 4 358 359 4 16 7 344 25 30 25 12 8 11 335 343 294 92 52 149 25 57 49 47 41
341 342 343 343 342 343 345 345 346 346 345 344 341 341 338 335 344 341 336 341 341 349 359 6 6 2 3 13 21 15 6 359 15 15 19 26 35 360 344 69 133 30 349 307 345 18 14
340 338 340 342 339 338 340 342 343 344 342 342 339 337 334 334 342 334 336 344 345 349 0 3 9 6 9 13 17 22 26 345 340 1 19 36 46 59 31 52 56 2 29 246 176 273 349
340 337 337 337 338 336 335 337 339 341 340 338 339 335 329 328 344 329 330 334 340 346 349 357 353 353 6 12 23 16 6 2 344 345 351 12 28 36 29 48 13 5 25 87 293 305 342
341 339 336 335 335 336 333 334 335 338 339 336 338 333 324 324 344 333 327 326 336 345 344 351 359 351 355 3 7 356 348 347 344 342 357 9 8 9 17 19 6 335 359 25 334 338 340
337 339 336 333 333 333 333 332 332 335 337 336 334 332 325 323 332 341 336 330 331 340 345 348 348 344 334 331 319 321 313 328 327 320 351 360 9 353 1 16 338 348 355 337 335 331 327